Location: San Pelegr�n
(42.1868°N, 0.0079°E)
Time: 21:08:51
(UTC+00:00)

YAOGAN 6 - Pass Details

Date: 24 January 2020
Orbit: 465 x 506 km, 97.0° (Epoch: 20 February)

Event Time Altitude Azimuth Distance (km) Brightness Sun altitude
Rises 18:15:04 0° 176° (S) 2,589 6.4 -13.3°
Reaches altitude 10° 18:17:10 10° 181° (S) 1,707 5.5 -13.7°
Maximum altitude 18:20:48 56° 260° (W) 600 3.4 -14.3°
Drops below altitude 10° 18:24:25 10° 340° (NNW) 1,704 5.4 -15.0°
Sets 18:26:31 0° 344° (NNW) 2,586 6.3 -15.4°
